Weather Service Report


427 
ASUS41 KALY 261410
RWRALY

NEW YORK STATE HOURLY WEATHER ROUNDUP
NATIONAL WEATHER SERVICE ALBANY NY
900 AM EST SUN FEB 26 2017

NOTE: "FAIR" INDICATES FEW OR NO CLOUDS BELOW 12,000 FEET WITH NO
SIGNIFICANT WEATHER AND/OR NO OBSTRUCTIONS TO VISIBILITY.

NYZ032-033-038>043-046>054-057>066-NYZ062>081-082-084-261500-
EAST

  
CITY           SKY/WX    TMP DP  RH WIND       PRES   REMARKS
ALBANY         CLOUDY    33  19  56 W17       29.93R WCI  22          
GLENS FALLS    CLOUDY    33  16  49 W9G18     29.88R WCI  25          
POUGHKEEPSIE   CLOUDY    36  15  42 W13G24    29.95R WCI  27          
NEWBURGH       PTSUNNY   34  18  51 NW14G28   29.96R WCI  24          
MONTGOMERY     CLOUDY    35  16  45 NW18G26   29.95R WCI  24          
WHITE PLAINS   PTSUNNY   35  17  47 NW24G31   29.92R WCI  23          
ISLIP          CLOUDY    38  21  50 NW20G25   29.92R WCI  28          
NEW YORK CITY  CLOUDY    40  20  44 NW24G35   29.96R WCI  29          
CENTRAL PARK   CLOUDY    37  18  46 W9G25     29.98R WCI  30          
$$

NYZ005>009-017-018-044>046-055-056-261500-
CENTRAL

  
CITY           SKY/WX    TMP DP  RH WIND       PRES   REMARKS
FULTON         SNOW      28  23  81 NW15      29.99R VSB 1/2 WCI  16  
SYRACUSE       FLURRIES  28  21  75 W16       29.98R WCI  16          
ROME           MIX PCPN  29  18  63 NW25G31   29.97R WCI  14          
ELMIRA         FLURRIES  29  16  58 W9        30.01R WCI  20          
BINGHAMTON     LGT SNOW  24  18  77 NW12      29.94R WCI  13          
MONTICELLO     CLOUDY    27  18  69 NW10G20   29.93R WCI  17          
$$

NYZ026>034-041>043-087-261500-
NORTH

  
CITY           SKY/WX    TMP DP  RH WIND       PRES   REMARKS
WATERTOWN      PTSUNNY   28  15  58 W18       29.98R WCI  15          
FORT DRUM      NOT AVBL                                               
OGDENSBURG     FAIR      28  15  57 W12G23    29.93R WCI  18          
MASSENA        PTSUNNY   25  13  60 W18       29.91R WCI  11          
SARANAC LAKE   LGT SNOW  20  15  81 W10G25    29.77R WCI   9          
PLATTSBURGH    CLOUDY    30  15  53 W9G17     29.83R WCI  22          
$$

NYZ001>004-010>016-019>021-085-261500-
WEST

  
CITY           SKY/WX    TMP DP  RH WIND       PRES   REMARKS
NIAGARA FALLS  MIX PCPN  29  20  69 W18       30.03R WCI  16          
BUFFALO        CLOUDY    28  17  63 W15       30.03R WCI  16          
DUNKIRK        CLOUDY    28  16  60 W12G22    30.06R WCI  18          
JAMESTOWN      CLOUDY    21  16  79 W14       30.00R WCI   8          
WELLSVILLE     CLOUDY    24  14  65 W12G25    29.96R WCI  13          
ROCHESTER      FLURRIES  28  21  75 W16       30.02R WCI  16          
PENN YAN       FLURRIES  27  20  75 W7        30.00R WCI  19          
$$

             KEY
       WCI = WIND CHILL INDEX
       VSB = VISIBILITY
       HX  = HEAT INDEX
$$
  

Return to Home page


Western Regional Climate Center, wrcc@dri.edu